Regional Weather Roundup
Issued by NWS

Home | Current Version | Previous Version | Text Only | Print | Product List | Glossary Off
Versions: 1 2 3 4 5 6 7 8 9 10 11 12 13 14 15 16 17 18 19 20 21 22 23 24 25 26 27 28 29 30 31 32 33 34 35 36 37 38 39 40 41 42 43 44 45 46 47 48 49 50

000
ASUS43 KMKX 240810
RWRWI

WISCONSIN REGIONAL WEATHER ROUNDUP
NATIONAL WEATHER SERVICE MILWAUKEE/SULLIVAN WI
200 AM CST SAT FEB 24 2018

NOTE: "FAIR" INDICATES FEW OR NO CLOUDS BELOW 12,000 FEET WITH NO
SIGNIFICANT WEATHER AND/OR OBSTRUCTIONS TO VISIBILITY.

WIZ001-002-006>008-014>016-023>028-240900-
NORTHWEST WISCONSIN

CITY           SKY/WX    TMP DP  RH WIND       PRES   REMARKS
SUPERIOR ARPT  FAIR      19  11  70 W6        30.25R WCI  11
ASHLAND        FAIR      20  17  88 SW8       30.23S WCI  10
HAYWARD        FOG        6   2  83 CALM      30.22F VSB 1/4
SIREN          FAIR       6   4  91 CALM      30.25S FOG
CUMBERLAND     FOG        1  -2  85 CALM      30.22F VSB<1/4
RICE LAKE      FOG       -1  -4  87 CALM      30.24F VSB 3/4
CHETEK         FAIR       6   3  89 CALM      30.23F
LADYSMITH      FOG        4   0  84 CALM      30.24S VSB<1/4
EAU CLAIRE     FAIR       9   7  92 CALM      30.25R FOG
MENOMONIE      FOG        4   0  83 SE5       30.26R VSB 3/4 WCI  -6
NEW RICHMOND   HAZE      -1  -6  81 CALM      30.24F VSB<1/4
OSCEOLA        FOG       -1  -5  84 CALM      30.28S VSB 1/4
$$

WIZ003>005-009-010-017-018-240900-
NORTH CENTRAL WISCONSIN

CITY           SKY/WX    TMP DP  RH WIND       PRES   REMARKS
MANITOWISH WTR FAIR      13  13 100 CALM      30.18F FOG
ARBOR VITAE    FAIR      17  15  93 CALM      30.19S FOG
WOODRUFF       FAIR      17  15  93 CALM      30.19S FOG
RHINELANDER    FOG       10   9  95 CALM      30.19F VSB 1/4
EAGLE RIVER    FAIR      18  18  97 CALM      30.18S FOG
LAND O LAKES   CLOUDY    23  21  92 CALM      30.20S
PHILLIPS       FOG        3   1  89 CALM      30.20F VSB<1/4
TOMAHAWK       FAIR       4   1  88 CALM      30.21S
MEDFORD        FOG        5   2  87 CALM      30.19F VSB<1/4
MERRILL        FOG        7   5  89 CALM      30.22F VSB 1/4
$$

WIZ029-030-035-036-043>047-240900-
CENTRAL WISCONSIN

CITY           SKY/WX    TMP DP  RH WIND       PRES   REMARKS
WAUSAU         FAIR      19  17  92 CALM      30.21S FOG
MOSINEE        MOCLDY    18  18 100 S3        30.24R FOG
MARSHFIELD     MOCLDY    15  13  91 SW5       30.23R FOG     WCI   8
STEVENS POINT  MOCLDY    20  20 100 SW3       30.27R FOG
WAUPACA        FAIR      26  22  85 SW3       30.27F
WAUTOMA        FAIR      23  20  88 CALM      30.28F
WISC RAPIDS    FAIR      20  16  84 CALM      30.27S FOG
CAMP DOUGLAS   FAIR      19  19  97 CALM      30.27F FOG
$$

WIZ011>013-019>022-031-037>040-048>050-240900-
NORTHEAST WISCONSIN

CITY           SKY/WX    TMP DP  RH WIND       PRES   REMARKS
ANTIGO         FOG       13  12  95 CALM      30.20F VSB 1/4
SHAWANO        CLOUDY    31  24  75 SW3       30.26S
OCONTO         CLOUDY    31  23  71 CALM      30.26F
STURGEON BAY   CLOUDY    31  24  75 NW5       30.27R WCI  26
GREEN BAY      CLOUDY    31  22  69 N3        30.27S
MANITOWOC      CLOUDY    31  24  75 CALM      30.28S
APPLETON       FAIR      27  19  74 CALM      30.25S
CLINTONVILLE   CLOUDY    28  22  80 CALM      30.26S
OSHKOSH        CLOUDY    29  22  75 N6        30.27S WCI  23
$$

WIZ032>034-041-042-053>061-240900-
SOUTHWEST WISCONSIN

CITY           SKY/WX    TMP DP  RH WIND       PRES   REMARKS
LA CROSSE      FAIR      23  19  85 CALM      30.29  FOG
SPARTA         FAIR      18  17  98 CALM      30.29F FOG
VIROQUA        FAIR      22  22 100 CALM      30.25S
BOSCOBEL       FAIR      26  21  81 CALM      30.30S
PRAIRIE DU CHI CLOUDY    24  20  83 CALM      30.29F
PLATTEVILLE    FAIR      26  26 100 N8        30.26F WCI  17
$$

WIZ056-057-062-063-064-067-068-240900-
SOUTH CENTRAL WISCONSIN

CITY           SKY/WX    TMP DP  RH WIND       PRES   REMARKS
REEDSBURG      CLOUDY    26  23  89 E3        30.29R
BARABOO/DELLS  CLOUDY    27  22  82 CALM      30.28R
LONE ROCK      CLOUDY    28  24  85 E8        30.30R FOG     WCI  20
MINERAL POINT  CLOUDY    28  28 100 NE8       30.24F WCI  20
MADISON        CLOUDY    28  23  81 NE8       30.28S WCI  20
MIDDLETON      CLOUDY    30  25  83 NE7       30.28R WCI  23
WATERTOWN      CLOUDY    29  25  86 N8        30.26F WCI  21
MONROE         FAIR      28  27  93 N8        30.23F WCI  20
JANESVILLE     FAIR      30  30 100 N6        30.24F WCI  24
$$

WIZ051-052-058>065-066-070>072-240900-
SOUTHEAST WISCONSIN

CITY           SKY/WX    TMP DP  RH WIND       PRES   REMARKS
MILWAUKEE      FAIR      30  24  78 N5        30.26F WCI  25
WAUKESHA       CLOUDY    28  23  80 N3        30.27F
MILWAUKEE/TIMM CLOUDY    28  23  80 CALM      30.27F
RACINE         FAIR      30  26  85 N8        30.27F WCI  22
BURLINGTON     FAIR      29  25  86 N6        30.25F WCI  23
KENOSHA        FAIR      31  26  82 N7        30.24F WCI  24
FOND DU LAC    CLOUDY    30  21  69 NE7       30.28S WCI  23
SHEBOYGAN      CLOUDY    31  25  78 CALM      30.27F
WEST BEND      CLOUDY    30  27  86 N7        30.26F WCI  23
JUNEAU         CLOUDY    28  22  78 N6        30.28F WCI  22
$$

LSZ147-162-240900-
LAKE SUPERIOR

STATION/POSITION TIME  TEMP    WIND        PRES    WAVE
                       AIR SEA DIR/SP/G            HT/PER
                 (UTC) (F)     (DEG/KT/KT) (MB)    (FT/S)
DEVILS ISLAND    0800   25     280/ 14/ 14 1024.2S
SAXON HARBOR     0730   23     200/  4/  6 1023.0S
$$

LMZ867-665-643>646-240900-
LAKE MICHIGAN

STATION/POSITION TIME  TEMP    WIND        PRES    WAVE
                       AIR SEA DIR/SP/G            HT/PER
                 (UTC) (F)     (DEG/KT/KT) (MB)    (FT/S)
NORTHPORT PIER   0740   32                 1024.0S
KEWAUNEE LAKESHO 0742   31      CALM  /  2 1024.1F
SHEBOYGAN LAKESH 0800   32     320/  4/  5 1025.7F
PORT WASHINGTON  0730   32      10/  4/  6 1026.4F
KENOSHA   LAKESH 0800   32      10/ 14/ 15 1023.7
$$

TC  - TEMPERATURE IN CELSIUS
VSB - VISIBILITY IN STATUTE MILES
WCI - WIND CHILL INDEX
HX  - HEAT INDEX





USA.gov is the U.S. government's official web portal to all federal, state and local government web resources and services.